Leadville, CO

2:44 AM MDT on March 27, 2017 (GMT -0600)
Lake County

Weather History for KLXV - September, 2013

Change the Weather History Date:

Sunday, September 22, 2013

  Actual Average Record
Temperature  
Mean Temperature 43 °F -  
Max Temperature 53 °F 59 °F 68 °F (1987)
Min Temperature 33 °F 29 °F 21 °F (2004)
Degree Days  
Heating Degree Days 22 21  
Month to date heating degree days 295 396  
Since 1 July heating degree days 897 1118  
Cooling Degree Days 0 0  
Month to date cooling degree days 0 0  
Year to date cooling degree days 0 0  
Moisture  
Dew Point 37 °F    
Average Humidity 76    
Maximum Humidity 92    
Minimum Humidity 59    
Precipitation  
Precipitation 0.33 in 0.04 in 0.55 in (2006)
Month to date precipitation 2.95 0.85  
Year to date precipitation 14.59 9.80  
Sea Level Pressure  
Sea Level Pressure 29.79 in    
Wind  
Wind Speed 4 mph (South)    
Max Wind Speed 26 mph    
Max Gust Speed 32 mph    
Visibility 9 miles    
Events Rain , Thunderstorm    
T = Trace of Precipitation, MM = Missing Value Source: NWS Daily Summary

Daily Weather History Graph

Daily Weather History Graph

Search for Another Location

Airport or City:

Trip Planner

Search our weather history database for the weather conditions in past years. The results will help you decide how hot, cold, wet, or windy it might be!

Date:

Astronomy

Sep. 22, 2013 Rise Set
Actual Time 6:53 AM MDT 7:01 PM MDT
Civil Twilight 6:26 AM MDT 7:28 PM MDT
Nautical Twilight 5:55 AM MDT 7:59 PM MDT
Astronomical Twilight 5:23 AM MDT 8:31 PM MDT
Moon 8:55 PM MDT (9/22) 10:14 AM MDT (9/22)
Length of Visible Light 13h 02m
Length of Day
12h 08m
Waning Gibbous, 88% of the Moon is Illuminated
Sep 22
Waning Gibbous
Sep 26
Last Quarter
Oct 4
New
Oct 11
First Quarter
Oct 18
Full

Hourly Weather History & Observations

Time (MDT) Temp. Windchill Dew Point Humidity Pressure Visibility Wind Dir Wind Speed Gust Speed Precip Events Conditions
12:53 AM 39.0 °F - 32.0 °F 76% 29.74 in 10.0 mi Calm Calm - N/A   Overcast
1:53 AM 39.0 °F 33.4 °F 32.0 °F 76% 29.73 in 10.0 mi NE 8.1 mph - N/A   Clear
2:53 AM 39.9 °F 36.7 °F 34.0 °F 79% 29.70 in 10.0 mi SW 4.6 mph - N/A   Mostly Cloudy
3:53 AM 41.0 °F 38.0 °F 34.0 °F 76% 29.68 in 10.0 mi NE 4.6 mph - N/A   Overcast
4:53 AM 37.0 °F - 33.1 °F 86% 29.70 in 10.0 mi Calm Calm - N/A   Scattered Clouds
5:53 AM 39.0 °F 34.0 °F 34.0 °F 82% 29.68 in 10.0 mi NE 6.9 mph - N/A   Overcast
6:53 AM 39.0 °F - 34.0 °F 82% 29.72 in 10.0 mi Calm Calm - N/A   Mostly Cloudy
7:53 AM 41.0 °F 39.0 °F 36.0 °F 82% 29.75 in 10.0 mi East 3.5 mph - N/A   Mostly Cloudy
8:53 AM 46.0 °F - 36.0 °F 68% 29.73 in 10.0 mi Calm Calm - N/A   Overcast
9:27 AM 42.8 °F 40.1 °F 39.2 °F 87% 30.15 in 2.0 mi SW 4.6 mph - 0.02 in Rain Rain
9:42 AM 42.8 °F - 39.2 °F 87% 30.15 in 5.0 mi Calm Calm - 0.03 in Rain Light Rain
9:53 AM 43.0 °F 41.3 °F 39.9 °F 89% 29.77 in 8.0 mi ESE 3.5 mph - 0.04 in Rain Light Rain
10:53 AM 44.1 °F 41.5 °F 42.1 °F 93% 29.75 in 10.0 mi East 4.6 mph - 0.02 in Rain Light Rain
11:53 AM 48.9 °F - 42.1 °F 77% 29.69 in 10.0 mi Calm Calm - 0.00 in   Mostly Cloudy
12:53 PM 53.1 °F - 39.0 °F 59% 29.65 in 10.0 mi South 8.1 mph - N/A   Mostly Cloudy
1:53 PM 51.1 °F - 41.0 °F 68% 29.61 in 10.0 mi South 12.7 mph - N/A   Overcast
2:14 PM 46.4 °F 39.8 °F 42.8 °F 87% 30.01 in 3.0 mi South 16.1 mph 32.2 mph 0.01 in Rain , Thunderstorm Rain
2:46 PM 46.4 °F 42.9 °F 42.8 °F 87% 30.00 in 10.0 mi NW 6.9 mph - 0.04 in   Overcast
2:53 PM 45.0 °F 41.8 °F 42.1 °F 90% 29.64 in 10.0 mi WNW 5.8 mph - 0.04 in   Overcast
3:35 PM 44.6 °F 41.4 °F 41.0 °F 87% 29.99 in 10.0 mi South 5.8 mph - 0.00 in Rain , Thunderstorm Light Rain
3:46 PM 44.6 °F 37.2 °F 39.2 °F 81% 30.00 in 7.0 mi SSW 17.3 mph 26.5 mph 0.00 in Rain , Thunderstorm Light Rain
3:53 PM 43.0 °F 35.7 °F 37.9 °F 82% 29.66 in 10.0 mi South 15.0 mph 23.0 mph 0.00 in Rain , Thunderstorm Light Rain
4:08 PM 42.8 °F 38.6 °F 37.4 °F 81% 30.01 in 5.0 mi SSW 6.9 mph - 0.02 in Rain Rain
4:23 PM 42.8 °F 39.3 °F 39.2 °F 87% 30.00 in 8.0 mi ENE 5.8 mph - 0.04 in Rain Light Rain
4:49 PM 42.8 °F - 39.2 °F 87% 29.98 in 10.0 mi Calm Calm - 0.05 in   Mostly Cloudy
4:53 PM 42.1 °F - 39.0 °F 89% 29.65 in 10.0 mi Calm Calm - 0.05 in   Mostly Cloudy
5:53 PM 42.1 °F 39.2 °F 39.0 °F 89% 29.62 in 10.0 mi SSE 4.6 mph - 0.01 in Rain Light Rain
6:25 PM 41.0 °F 38.0 °F 39.2 °F 93% 29.93 in 10.0 mi West 4.6 mph - 0.00 in   Overcast
6:53 PM 41.0 °F - 39.0 °F 93% 29.58 in 10.0 mi Calm Calm - 0.00 in   Overcast
7:09 PM 41.0 °F - 39.2 °F 93% 29.92 in 10.0 mi Calm Calm - N/A   Overcast
7:53 PM 39.9 °F 34.5 °F 39.0 °F 97% 29.57 in 8.0 mi SSW 8.1 mph - 0.01 in Rain Light Rain
8:08 PM 39.2 °F 34.2 °F 39.2 °F 100% 29.91 in 6.0 mi SW 6.9 mph - 0.03 in Rain Light Rain
8:34 PM 35.6 °F 29.2 °F 33.8 °F 93% 29.92 in 4.0 mi WNW 8.1 mph - 0.09 in Rain Light Rain
8:53 PM 36.0 °F 30.3 °F 34.0 °F 93% 29.58 in 10.0 mi Variable 6.9 mph - 0.09 in Rain Light Rain
9:53 PM 35.1 °F - 33.1 °F 92% 29.62 in 7.0 mi Calm Calm - 0.03 in Rain Light Rain
10:28 PM 35.6 °F - 33.8 °F 93% 29.93 in 10.0 mi Calm Calm - 0.00 in Rain Light Rain
10:53 PM 35.1 °F 32.2 °F 34.0 °F 96% 29.58 in 10.0 mi NNW 3.5 mph - 0.00 in   Overcast
11:27 PM 35.6 °F - 33.8 °F 93% 29.90 in 10.0 mi Calm Calm - 0.01 in Rain Light Rain
11:53 PM 35.1 °F - 33.1 °F 92% 29.55 in 10.0 mi Calm Calm - 0.01 in Rain Light Rain